カタログに戻る

SL-16 DEB

運用中LEO
NORAD 22374·DEBRIS·🇷🇺 Russia

打ち上げ Dec 25, 1992 から Baikonur Cosmodrome

Loading…

次のパス (今後24時間)

TLE

最新Source: Space-Track

元期: Sep 14, 2026, 14:58 UTC

1 22374U 92093BP  26257.62416392  .00000447  00000-0  34970-3 0  9997
2 22374  70.7887 320.7516 0173458   8.9682 142.5623 13.90705571699153

AllMySatでSL-16 DEBをリアルタイム追跡

Download on the App Store